Barnwell, SC

8:46 PM EST on November 17, 2019 (GMT -0500)
Barnwell County

Weather History for KBNL - September, 2019

Change the Weather History Date:

Wednesday, September 4, 2019

  Actual Average (WUND) Record (WUND)
Temperature  
Mean Temperature 81 °F -  
Max Temperature 89 °F - - (-1)
Min Temperature 73 °F - - (-1)
Cooling Degree Days 16    
Growing Degree Days 31 (Base 50)    
Moisture  
Dew Point 72 °F    
Average Humidity 77    
Maximum Humidity 100    
Minimum Humidity 59    
Precipitation  
Precipitation 0.00 in - - ()
Sea Level Pressure  
Sea Level Pressure 29.91 in    
Wind  
Wind Speed 8 mph (NNE)    
Max Wind Speed 17 mph    
Max Gust Speed 26 mph    
Visibility 10 miles    
Events      
Averages and records for this station are not official NWS values.
T = Trace of Precipitation, MM = Missing Value Source: NWS Daily Summary

Daily Weather History Graph

Daily Weather History Graph

Search for Another Location

Airport or City:

Astronomy

Sep. 04, 2019 Rise Set
Actual Time 7:01 AM EDT 7:47 PM EDT
Civil Twilight 6:36 AM EDT 8:12 PM EDT
Nautical Twilight 6:06 AM EDT 8:41 PM EDT
Astronomical Twilight 5:36 AM EDT 9:12 PM EDT
Moon 12:43 PM EDT (9/4) 11:39 PM EDT (9/4)
Length of Visible Light 13h 35m
Length of Day
12h 45m
Waxing Crescent, 34% of the Moon is Illuminated
Sep 4
Waxing Crescent
Sep 5
First Quarter
Sep 14
Full
Sep 21
Last Quarter
Sep 28
New

Hourly Weather History & Observations

Time (EDT) Temp. Heat Index Dew Point Humidity Pressure Visibility Wind Dir Wind Speed Gust Speed Precip Events Conditions
12:15 AM 77.0 °F - 71.6 °F 83% 29.96 in 10.0 mi NE 3.5 mph - N/A   Clear
12:35 AM 77.0 °F - 71.6 °F 83% 29.95 in 10.0 mi Calm Calm - N/A   Clear
12:55 AM 75.2 °F - 71.6 °F 89% 29.95 in 10.0 mi Calm Calm - N/A   Clear
1:15 AM 75.2 °F - 71.6 °F 89% 29.94 in 10.0 mi NE 5.8 mph - N/A   Clear
1:35 AM 75.2 °F - 71.6 °F 89% 29.94 in 10.0 mi NE 4.6 mph - N/A   Clear
1:55 AM 73.4 °F - 71.6 °F 94% 29.94 in 10.0 mi NNE 3.5 mph - N/A   Clear
2:15 AM 75.2 °F - 71.6 °F 89% 29.95 in 10.0 mi NNE 4.6 mph - N/A   Clear
2:35 AM 73.4 °F - 71.6 °F 94% 29.94 in 10.0 mi NNE 5.8 mph - N/A   Clear
2:55 AM 73.4 °F - 71.6 °F 94% 29.94 in 10.0 mi NE 5.8 mph - N/A   Clear
3:15 AM 73.4 °F - 71.6 °F 94% 29.94 in 10.0 mi NNE 4.6 mph - N/A   Clear
3:35 AM 73.4 °F - 71.6 °F 94% 29.93 in 10.0 mi NE 5.8 mph - N/A   Clear
3:55 AM 73.4 °F - 71.6 °F 94% 29.94 in 10.0 mi NE 5.8 mph - N/A   Clear
4:15 AM 73.4 °F - 71.6 °F 94% 29.93 in 10.0 mi NNE 6.9 mph - N/A   Clear
4:35 AM 73.4 °F - 71.6 °F 94% 29.93 in 10.0 mi NNE 6.9 mph - N/A   Clear
4:55 AM 75.2 °F - 71.6 °F 89% 29.92 in 10.0 mi NNE 6.9 mph - N/A   Clear
5:15 AM 73.4 °F - 71.6 °F 94% 29.93 in 10.0 mi North 5.8 mph - N/A   Clear
6:15 AM 73.4 °F - 71.6 °F 94% 29.95 in 10.0 mi NNE 9.2 mph - N/A   Clear
6:35 AM 73.4 °F - 71.6 °F 94% 29.95 in 10.0 mi NNE 6.9 mph - N/A   Clear
6:55 AM 73.4 °F - 71.6 °F 94% 29.94 in 10.0 mi NNE 8.1 mph - N/A   Clear
7:15 AM 73.4 °F - 73.4 °F 100% 29.94 in 10.0 mi NNE 8.1 mph - N/A   Partly Cloudy
7:55 AM 75.2 °F - 73.4 °F 94% 29.95 in 10.0 mi NE 8.1 mph - N/A   Clear
8:15 AM 75.2 °F - 73.4 °F 94% 29.96 in 10.0 mi NNE 8.1 mph - N/A   Clear
8:35 AM 75.2 °F - 73.4 °F 94% 29.96 in 10.0 mi NNE 9.2 mph - N/A   Clear
8:55 AM 78.8 °F - 73.4 °F 83% 29.96 in 10.0 mi NNE 11.5 mph - N/A   Clear
9:15 AM 80.6 °F 86.2 °F 75.2 °F 84% 29.96 in 10.0 mi NNE 11.5 mph - N/A   Partly Cloudy
9:35 AM 82.4 °F 89.5 °F 75.2 °F 79% 29.96 in 10.0 mi North 13.8 mph 21.9 mph N/A   Mostly Cloudy
9:55 AM 80.6 °F 85.4 °F 73.4 °F 79% 29.96 in 10.0 mi NNE 10.4 mph 16.1 mph N/A   Mostly Cloudy
10:15 AM 80.6 °F 85.4 °F 73.4 °F 79% 29.96 in 10.0 mi NNE 12.7 mph - N/A   Mostly Cloudy
11:15 AM 84.2 °F 90.9 °F 73.4 °F 70% 29.95 in 10.0 mi NE 16.1 mph 21.9 mph N/A   Partly Cloudy
11:35 AM 84.2 °F 90.9 °F 73.4 °F 70% 29.96 in 10.0 mi NE 11.5 mph 25.3 mph N/A   Mostly Cloudy
11:55 AM 84.2 °F 90.9 °F 73.4 °F 70% 29.96 in 10.0 mi NE 16.1 mph 23.0 mph N/A   Mostly Cloudy
12:15 PM 84.2 °F 90.9 °F 73.4 °F 70% 29.95 in 10.0 mi NE 13.8 mph 21.9 mph N/A   Mostly Cloudy
12:35 PM 86.0 °F 93.4 °F 73.4 °F 66% 29.94 in 10.0 mi NE 17.3 mph - N/A   Scattered Clouds
12:55 PM 87.8 °F 95.6 °F 73.4 °F 62% 29.94 in 10.0 mi NE 15.0 mph 21.9 mph N/A   Scattered Clouds
1:15 PM 87.8 °F 95.6 °F 73.4 °F 62% 29.92 in 10.0 mi NE 15.0 mph - N/A   Scattered Clouds
1:35 PM 87.8 °F 95.6 °F 73.4 °F 62% 29.92 in 10.0 mi NE 13.8 mph 21.9 mph N/A   Scattered Clouds
1:55 PM 87.8 °F 95.6 °F 73.4 °F 62% 29.92 in 10.0 mi NE 13.8 mph - N/A   Mostly Cloudy
2:15 PM 87.8 °F 95.6 °F 73.4 °F 62% 29.91 in 10.0 mi NE 15.0 mph - N/A   Mostly Cloudy
2:35 PM 86.0 °F 93.4 °F 73.4 °F 66% 29.90 in 10.0 mi NNE 15.0 mph - N/A   Mostly Cloudy
2:55 PM 87.8 °F 95.6 °F 73.4 °F 62% 29.89 in 10.0 mi NNE 15.0 mph 20.7 mph N/A   Mostly Cloudy
3:55 PM 87.8 °F 95.6 °F 73.4 °F 62% 29.87 in 10.0 mi NNE 13.8 mph 21.9 mph N/A   Clear
4:15 PM 87.8 °F 95.6 °F 73.4 °F 62% 29.86 in 10.0 mi NE 15.0 mph - N/A   Clear
4:35 PM 87.8 °F 95.6 °F 73.4 °F 62% 29.87 in 10.0 mi NNE 12.7 mph 23.0 mph N/A   Clear
4:55 PM 89.6 °F 98.2 °F 73.4 °F 59% 29.86 in 10.0 mi NE 16.1 mph 23.0 mph N/A   Clear
5:15 PM 87.8 °F 95.6 °F 73.4 °F 62% 29.87 in 10.0 mi NE 10.4 mph 26.5 mph N/A   Scattered Clouds
5:55 PM 86.0 °F 93.4 °F 73.4 °F 66% 29.86 in 10.0 mi NE 11.5 mph 18.4 mph N/A   Mostly Cloudy
6:15 PM 86.0 °F 93.4 °F 73.4 °F 66% 29.86 in 10.0 mi ENE 10.4 mph 18.4 mph N/A   Scattered Clouds
6:35 PM 86.0 °F 93.4 °F 73.4 °F 66% 29.85 in 10.0 mi NE 16.1 mph - N/A   Clear
6:55 PM 84.2 °F 89.6 °F 71.6 °F 66% 29.85 in 10.0 mi NE 15.0 mph - N/A   Clear
7:15 PM 84.2 °F 90.9 °F 73.4 °F 70% 29.85 in 10.0 mi NE 8.1 mph 16.1 mph N/A   Clear
7:35 PM 82.4 °F 88.2 °F 73.4 °F 74% 29.85 in 10.0 mi NNE 9.2 mph - N/A   Clear
7:55 PM 82.4 °F 87.2 °F 71.6 °F 70% 29.85 in 10.0 mi NNE 11.5 mph - N/A   Clear
8:15 PM 82.4 °F 87.2 °F 71.6 °F 70% 29.84 in 10.0 mi NNE 15.0 mph - N/A   Clear
8:35 PM 82.4 °F 86.3 °F 69.8 °F 66% 29.85 in 10.0 mi NE 15.0 mph - N/A   Clear
8:55 PM 82.4 °F 86.3 °F 69.8 °F 66% 29.85 in 10.0 mi NE 11.5 mph 21.9 mph N/A   Clear
9:15 PM 82.4 °F 86.3 °F 69.8 °F 66% 29.84 in 10.0 mi NE 17.3 mph 24.2 mph N/A   Clear
9:55 PM 80.6 °F 83.9 °F 69.8 °F 70% 29.83 in 10.0 mi NNE 16.1 mph 23.0 mph N/A   Clear
10:15 PM 80.6 °F 83.9 °F 69.8 °F 70% 29.83 in 10.0 mi NNE 12.7 mph 20.7 mph N/A   Clear
10:35 PM 80.6 °F 83.2 °F 68.0 °F 65% 29.83 in 10.0 mi NNE 15.0 mph 20.7 mph N/A   Clear
10:55 PM 80.6 °F 83.9 °F 69.8 °F 70% 29.83 in 10.0 mi NNE 11.5 mph 18.4 mph N/A   Clear
11:15 PM 78.8 °F - 68.0 °F 69% 29.83 in 10.0 mi NNE 13.8 mph - N/A   Clear
11:55 PM 78.8 °F - 68.0 °F 69% 29.81 in 10.0 mi NNE 15.0 mph 25.3 mph N/A   Clear